FREGAT DEB, 46111

Orbit data source: Space-Track

FREGAT DEB, 46111 is space debris in LEO originally from a launch on Mon, 18 Jul 2011 UTC launched from the Tyuratam Missile And Space Complex (TTMTR). Debris objects in space refer to the collection of defunct objects orbiting the Earth. Examples of debris include non-operational satellites, rocket bodies, and fragments generated from explosions, collisions, or faulty payload assembly.

Loading next visibility...
Identifier
46111, 2011-037JW
Orbit
LEO
Country
Flag of CISCIS
Related business
Manufacturer
Lavochkin
Mission
Spacecraft
Bus & Motor
Unknown
Mass
Unknown
Launch date (UTC)
2011-07-18 (15 years ago)
Launch vehicle
Unknown
Launch site
Tyuratam Missile And Space Complex (TTMTR)
Object type
Payload
Rocket body
Debris
Shape & HBR
Unknown shape, 0.1 m
Radar Cross Section
Medium (>0.1 m² and <1 m²)

Expand to show TLE details & history
Last TLE update: 2 days ago

TLE from 2 days ago
0 FREGAT DEB
1 46111U 11037JW  26171.39561279  .00004555  00000-0  17031+0 0  9994
2 46111  50.7911 173.2702 1140540 106.3283 266.5747 10.16149008176155
Epoch: 2026-06-20T09:29Z
TLE epoch observation values (Epoch: 2026-06-20T09:29:40.945Z)
Latitude
-0.00005°
Longitude
122.23871°
Altitude
2,802.188 km
Speed
6.526 km/s
True Right ascension
11h 33m 04s
True Declination
0° 00' 00"
Sunlit
Object was in daylight at epoch
Visualization orbit readout
Latitude
Unknown
Longitude
Unknown
Altitude
Unknown
Speed
Unknown
Apparent Right ascension
Unknown
Apparent Declination
Unknown
Sunlit
N/A
Visualization observer readout
Local Sidereal Time
21:38:07
Azimuth
Unknown
Elevation
Unknown
Doppler factor
Unknown
Orbital elements
Apogee altitude
3,653.243 km
Perigee altitude
1,599.269 km
Semi-major axis
9,004.393 km
Eccentricity
0.11405
Inclination
50.7911°
RAAN
173.2702°
Arg. of periapsis
106.3283°
True anomaly
253.74651°
Mean anomaly
266.5747°
Eccentric anomaly
260.13648°
Mean motion
2.54016 °/min
Orbital period
141.72 mins
BSTAR
0.17031
Loading maneuver chart data...
Computing Atmospheric mass density...
Loading historical data...
Loading historical data...
Loading historical data...
Loading historical data...
Loading historical data...
Loading historical data...
Loading historical data...

Documentation

Showing up to 5 results
|